Погода в Орловке

Россия / Новосибирская область     54°28′47″N   76°39′54″E
темп.,
°C
ветер,
м/с
пор.,
м/с
влажн.,
%
обл.,
%
осадки,
мм/ч
давл.,
гПа
погр.,
м
4 марта, чт
чт401:00−10ююз71392100 0.3 1015516
04:00−8ююз81593100 0.4 1014558
07:00−7ююз81492100 0.7 1013520
10:00−4ююз91593100 0.3 1012742
13:00−2ююз91493100 0.6 1011754
16:00−2ююз91595100 0.4 1010810
19:00−1ююз91595100 1.1 1009913
22:00−3ююз91692100 0.3 1008717
5 марта, пт
пт501:00−2ююз81595100 1.0 1007832
04:00−2ююз81395100 0.5 1004650
07:00−2юз81396100 1.4 1005741
10:00−5з91386100 0.4 1008790
13:00−7юз8148573 0.4 1012588
16:00−6юз91682100 0.0 1013838
19:00−5юз101693100 0.6 10141045
22:00−5юз81593100 0.6 1014855
6 марта, сб
сб601:00−4юз91693100 1.1 1014819
04:00−3юз91693100 0.4 1013840
07:00−4юз91594100 1.3 1013784
10:00−4юз91594100 1.1 1011853
13:00−2юз91591100 1.5 1011839
16:00−2юз91490100 0.1 1010864
19:00−2юз81493100 0.3 1010813
22:00−1юз81490100 0.1 1010831
7 марта, вс
вс701:00−4з5109499 0.1 1013372
04:00−10з349189 0.0 101428
07:00−11юз118494 0.0 101521
10:00−8юв4796100 0.1 1013215
13:00−2ю81393100 0.7 1011702
16:00−1юз91491100 0.2 1008914
19:000юз81495100 0.4 1008861
22:000юз81496100 0.9 1007762
8 марта, пн
пн801:000юз91592100 1.0 1008722
04:000юз81494100 0.1 1008690
07:00−5ссз5897100 1.0 1011268
10:00−8ссз3794100 0.3 1013306
13:00−7ссв4591100 0.3 1015318
16:00−7св3489100 0.0 1016354
19:00−7св3593100 0.1 1016247
22:00−9всв3695100 0.3 1017167